SHIYAN 6 02 (SY-6 02) (45859 NORAD) Tracking and Keplerian Element Data

This shows tracking and keplerian element data for the satellite.

Feedback or suggestion? Click here.




ElementValue
Catalog45859
NameSHIYAN 6 02 (SY-6 02)
Epoch Orbit555
Epoch Day225.09476519
Epoch Year2020
RAAN231.2218
Inclination98.2059
Eccentricity0.0015992
Argument of Perigee140.1919
Mean Anonmoly220.0457
Mean Motion14.5907945
Decay Rate-1E-08
L11 45859U 20043A 20225.09476519 -.00000001 00000-0 96605-5 0 9995
L22 45859 98.2059 231.2218 0015992 140.1919 220.0457 14.59079450 5555

Live tracking and technical data element details for SHIYAN 6 02 (SY-6 02) (NORAD 45859). SHIYAN 6 02 (SY-6 02) can be tracked NOW for your location showing map with azimuth and elevation plus other details from your city location.

Track the satellite on the map from your city or location and see movement details for azimuth, elevation, latitude, longitude, range, height, and movement on the map or in text.







IsCatalogInMostPopularTable: catalog: 45859, numindb: 8
Update: records affected: 1



GetName: 45859 SHIYAN 6 02 (SY-6 02)

Hit Count: updated at: Fri, 14 Aug 2020 05:09:43 GMT